STARLINK-36646

Last updated on Sun Mar 15 2026 00:02:07 GMT+0000 (Coordinated Universal Time)

1 67823U 26033C 26073.58335648 -.01947953 00000+0 -19725-1 0 9994 2 67823 42.9991 241.7417 0001579 275.6874 160.5777 15.67499446 5451

Satellite not in orbit